• Em Portugal
  • Lista de países
  • Para 7 dias
  • Temperatura da água
  • Mapas de satélite
  • Mapa do tempo
  • Widgets de tempo
  • user-avatar
    Iniciar Sessão

    Previsão horária em Shkoder

    Hoje, 23 Outubro, Terça-feira

    Tempo Temperatura Precipitação Vento Pressão Humidade
    00:00 +13°C° 0.7 mm 4 m/s 741 mmHg 81%
    01:00 +13°C° 0.7 mm 4 m/s 741 mmHg 81%
    02:00 +13°C° 0.8 mm 4 m/s 741 mmHg 81%
    03:00 +12°C° 0.8 mm 4 m/s 741 mmHg 81%
    04:00 +12°C° 0.8 mm 4 m/s 741 mmHg 81%
    05:00 +12°C° 0.4 mm 4 m/s 741 mmHg 80%
    06:00 +12°C° 0.4 mm 4 m/s 741 mmHg 80%
    07:00 +12°C° 0.4 mm 4 m/s 741 mmHg 79%
    08:00 +13°C° 0.1 mm 4 m/s 741 mmHg 74%
    09:00 +14°C° 0.1 mm 4 m/s 742 mmHg 69%
    10:00 +15°C° 0.1 mm 4 m/s 742 mmHg 65%
    11:00 +17°C° 0 mm 4 m/s 741 mmHg 61%
    12:00 +18°C° 0 mm 4 m/s 741 mmHg 57%
    13:00 +19°C° 0 mm 3 m/s 741 mmHg 53%
    14:00 +19°C° 0 mm 3 m/s 740 mmHg 55%
    15:00 +18°C° 0 mm 3 m/s 740 mmHg 56%
    16:00 +18°C° 0 mm 3 m/s 740 mmHg 58%
    17:00 +16°C° 0 mm 3 m/s 740 mmHg 63%
    18:00 +14°C° 0 mm 3 m/s 741 mmHg 68%
    19:00 +12°C° 0 mm 3 m/s 741 mmHg 72%
    20:00 +12°C° 0 mm 3 m/s 741 mmHg 74%
    21:00 +11°C° 0 mm 3 m/s 741 mmHg 75%
    22:00 +11°C° 0 mm 3 m/s 741 mmHg 76%
    23:00 +11°C° 0 mm 3 m/s 740 mmHg 76%

    Amanhã, 24 Outubro, Quarta-feira

    Tempo Temperatura Precipitação Vento Pressão Humidade
    00:00 +11°C° 0 mm 3 m/s 740 mmHg 76%
    01:00 +11°C° 0 mm 3 m/s 740 mmHg 76%
    02:00 +12°C° 0 mm 2 m/s 739 mmHg 73%
    03:00 +10°C° 0 mm 2 m/s 739 mmHg 70%
    04:00 +10°C° 0 mm 2 m/s 739 mmHg 68%
    05:00 +12°C° 0 mm 2 m/s 738 mmHg 63%
    06:00 +12°C° 0 mm 2 m/s 738 mmHg 59%
    07:00 +13°C° 0 mm 2 m/s 738 mmHg 55%
    08:00 +15°C° 0 mm 2 m/s 738 mmHg 49%
    09:00 +18°C° 0 mm 2 m/s 737 mmHg 43%
    10:00 +20°C° 0 mm 2 m/s 737 mmHg 38%
    11:00 +21°C° 0 mm 2 m/s 737 mmHg 38%
    12:00 +21°C° 0 mm 3 m/s 736 mmHg 39%
    13:00 +22°C° 0 mm 3 m/s 735 mmHg 40%
    14:00 +21°C° 0 mm 3 m/s 735 mmHg 44%
    15:00 +20°C° 0 mm 3 m/s 735 mmHg 48%
    16:00 +19°C° 0 mm 3 m/s 735 mmHg 52%
    17:00 +18°C° 0 mm 3 m/s 735 mmHg 56%
    18:00 +17°C° 0 mm 2 m/s 735 mmHg 59%
    19:00 +16°C° 0 mm 2 m/s 736 mmHg 63%
    20:00 +16°C° 0.1 mm 2 m/s 736 mmHg 65%
    21:00 +14°C° 0.1 mm 3 m/s 737 mmHg 67%
    22:00 +14°C° 0.1 mm 3 m/s 738 mmHg 69%
    23:00 +13°C° 0 mm 3 m/s 738 mmHg 70%

    Depois de amanhã, 25 Outubro, Quinta-feira

    Tempo Temperatura Precipitação Vento Pressão Humidade
    00:00 +11°C° 0 mm 3 m/s 739 mmHg 71%
    01:00 +10°C° 0 mm 4 m/s 739 mmHg 72%
    02:00 +8°C° 0 mm 4 m/s 739 mmHg 71%
    03:00 +7°C° 0 mm 4 m/s 740 mmHg 70%
    04:00 +6°C° 0 mm 4 m/s 740 mmHg 69%
    05:00 +6°C° 0 mm 4 m/s 741 mmHg 66%
    06:00 +7°C° 0 mm 3 m/s 741 mmHg 63%
    07:00 +7°C° 0 mm 3 m/s 742 mmHg 59%
    08:00 +9°C° 0 mm 3 m/s 742 mmHg 49%
    09:00 +11°C° 0 mm 3 m/s 742 mmHg 39%
    10:00 +13°C° 0 mm 3 m/s 742 mmHg 29%
    11:00 +14°C° 0 mm 3 m/s 742 mmHg 29%
    12:00 +16°C° 0 mm 3 m/s 741 mmHg 29%
    13:00 +18°C° 0 mm 2 m/s 741 mmHg 29%
    14:00 +17°C° 0 mm 2 m/s 741 mmHg 34%
    15:00 +17°C° 0 mm 2 m/s 741 mmHg 39%
    16:00 +16°C° 0 mm 2 m/s 741 mmHg 44%
    17:00 +15°C° 0 mm 2 m/s 741 mmHg 48%
    18:00 +13°C° 0 mm 2 m/s 741 mmHg 52%
    19:00 +12°C° 0 mm 2 m/s 741 mmHg 57%
    20:00 +12°C° 0 mm 2 m/s 741 mmHg 57%
    21:00 +12°C° 0 mm 2 m/s 741 mmHg 57%
    22:00 +12°C° 0 mm 2 m/s 741 mmHg 57%
    23:00 +12°C° 0 mm 2 m/s 741 mmHg 57%

    26 Outubro, Sexta-feira

    Tempo Temperatura Precipitação Vento Pressão Humidade
    00:00 +12°C° 0 mm 1 m/s 741 mmHg 57%
    01:00 +12°C° 0 mm 1 m/s 741 mmHg 57%
    02:00 +11°C° 0 mm 1 m/s 741 mmHg 58%
    03:00 +11°C° 0 mm 1 m/s 741 mmHg 58%
    04:00 +10°C° 0 mm 2 m/s 741 mmHg 59%
    05:00 +12°C° 0 mm 2 m/s 741 mmHg 60%
    06:00 +12°C° 0 mm 2 m/s 741 mmHg 61%
    07:00 +12°C° 0 mm 2 m/s 741 mmHg 62%
    08:00 +15°C° 0 mm 2 m/s 741 mmHg 57%
    09:00 +17°C° 0 mm 2 m/s 741 mmHg 52%
    10:00 +19°C° 0 mm 2 m/s 741 mmHg 47%
    11:00 +20°C° 0 mm 2 m/s 741 mmHg 46%
    12:00 +20°C° 0 mm 3 m/s 741 mmHg 46%
    13:00 +21°C° 0 mm 3 m/s 740 mmHg 45%
    14:00 +20°C° 0 mm 3 m/s 740 mmHg 48%
    15:00 +19°C° 0 mm 2 m/s 740 mmHg 51%
    16:00 +19°C° 0 mm 2 m/s 740 mmHg 54%
    17:00 +17°C° 0 mm 2 m/s 740 mmHg 57%
    18:00 +16°C° 0 mm 2 m/s 740 mmHg 60%
    19:00 +14°C° 0 mm 2 m/s 741 mmHg 63%
    20:00 +14°C° 0 mm 2 m/s 741 mmHg 63%
    21:00 +14°C° 0 mm 2 m/s 741 mmHg 63%
    22:00 +14°C° 0 mm 2 m/s 741 mmHg 63%
    23:00 +14°C° 0 mm 2 m/s 741 mmHg 66%

    27 Outubro, Sábado

    Tempo Temperatura Precipitação Vento Pressão Humidade
    00:00 +13°C° 0 mm 3 m/s 741 mmHg 70%
    01:00 +14°C° 0 mm 3 m/s 741 mmHg 73%
    02:00 +14°C° 0.1 mm 3 m/s 741 mmHg 75%
    03:00 +14°C° 0.1 mm 3 m/s 740 mmHg 76%
    04:00 +14°C° 0.1 mm 3 m/s 740 mmHg 78%
    05:00 +14°C° 0.1 mm 3 m/s 740 mmHg 78%
    06:00 +16°C° 0.1 mm 3 m/s 740 mmHg 78%
    07:00 +16°C° 0.1 mm 3 m/s 739 mmHg 78%
    08:00 +17°C° 0.2 mm 4 m/s 739 mmHg 78%
    09:00 +18°C° 0.2 mm 4 m/s 739 mmHg 78%
    10:00 +17°C° 0.2 mm 5 m/s 739 mmHg 78%
    11:00 +19°C° 0.6 mm 6 m/s 739 mmHg 79%
    12:00 +19°C° 0.6 mm 6 m/s 738 mmHg 80%
    13:00 +20°C° 0.6 mm 7 m/s 738 mmHg 81%
    14:00 +20°C° 0.8 mm 7 m/s 737 mmHg 82%
    15:00 +18°C° 0.8 mm 8 m/s 737 mmHg 83%
    16:00 +18°C° 0.8 mm 8 m/s 737 mmHg 84%
    17:00 +18°C° 0.6 mm 8 m/s 737 mmHg 86%
    18:00 +17°C° 0.6 mm 8 m/s 737 mmHg 89%
    19:00 +17°C° 0.6 mm 8 m/s 737 mmHg 91%
    20:00 +17°C° 0.8 mm 8 m/s 736 mmHg 90%
    21:00 +17°C° 0.8 mm 8 m/s 736 mmHg 89%
    22:00 +17°C° 0.8 mm 9 m/s 736 mmHg 89%
    23:00 +17°C° 1.7 mm 9 m/s 736 mmHg 89%

    28 Outubro, Domingo

    Tempo Temperatura Precipitação Vento Pressão Humidade
    00:00 +17°C° 1.7 mm 9 m/s 736 mmHg 89%
    01:00 +17°C° 1.7 mm 10 m/s 735 mmHg 89%
    02:00 +17°C° 2 mm 9 m/s 735 mmHg 88%
    03:00 +17°C° 2 mm 9 m/s 735 mmHg 88%
    04:00 +16°C° 2 mm 9 m/s 735 mmHg 88%
    05:00 +16°C° 3.4 mm 9 m/s 735 mmHg 88%
    06:00 +16°C° 3.4 mm 9 m/s 735 mmHg 88%
    07:00 +16°C° 3.4 mm 8 m/s 735 mmHg 88%
    08:00 +16°C° 5.8 mm 8 m/s 735 mmHg 89%
    09:00 +16°C° 5.8 mm 8 m/s 735 mmHg 90%
    10:00 +16°C° 5.8 mm 8 m/s 736 mmHg 91%
    11:00 +16°C° 8 mm 7 m/s 736 mmHg 91%
    12:00 +16°C° 8 mm 7 m/s 736 mmHg 92%
    13:00 +16°C° 8 mm 6 m/s 735 mmHg 92%
    14:00 +16°C° 8.9 mm 6 m/s 736 mmHg 93%
    15:00 +16°C° 8.9 mm 5 m/s 736 mmHg 94%
    16:00 +16°C° 8.9 mm 5 m/s 736 mmHg 94%
    17:00 +16°C° 7.5 mm 5 m/s 736 mmHg 94%
    18:00 +16°C° 7.5 mm 5 m/s 736 mmHg 93%
    19:00 +16°C° 7.5 mm 5 m/s 736 mmHg 93%
    20:00 +16°C° 5 mm 5 m/s 736 mmHg 93%
    21:00 +16°C° 5 mm 5 m/s 736 mmHg 92%
    22:00 +16°C° 5 mm 5 m/s 736 mmHg 92%
    23:00 +16°C° 4.8 mm 6 m/s 735 mmHg 92%

    29 Outubro, Segunda-feira

    Tempo Temperatura Precipitação Vento Pressão Humidade
    00:00 +15°C° 4.8 mm 6 m/s 735 mmHg 92%
    01:00 +15°C° 4.8 mm 6 m/s 734 mmHg 92%
    02:00 +15°C° 4 mm 6 m/s 734 mmHg 93%
    03:00 +15°C° 4 mm 6 m/s 733 mmHg 93%
    04:00 +15°C° 4 mm 6 m/s 733 mmHg 93%
    05:00 +15°C° 3.6 mm 6 m/s 733 mmHg 92%
    06:00 +15°C° 3.6 mm 5 m/s 732 mmHg 92%
    07:00 +15°C° 3.6 mm 5 m/s 732 mmHg 92%
    08:00 +15°C° 2.3 mm 5 m/s 732 mmHg 90%
    09:00 +15°C° 2.3 mm 5 m/s 732 mmHg 87%
    10:00 +17°C° 2.3 mm 4 m/s 731 mmHg 85%
    11:00 +16°C° 3.3 mm 5 m/s 731 mmHg 86%
    12:00 +16°C° 3.3 mm 5 m/s 731 mmHg 87%
    13:00 +16°C° 3.3 mm 5 m/s 731 mmHg 87%
    14:00 +16°C° 2.5 mm 5 m/s 730 mmHg 87%
    15:00 +16°C° 2.5 mm 5 m/s 730 mmHg 86%
    16:00 +16°C° 2.5 mm 5 m/s 730 mmHg 86%
    17:00 +16°C° 1.9 mm 5 m/s 730 mmHg 86%
    18:00 +16°C° 1.9 mm 5 m/s 730 mmHg 86%
    19:00 +16°C° 1.9 mm 5 m/s 731 mmHg 86%
    20:00 +16°C° 1.1 mm 5 m/s 731 mmHg 86%
    21:00 +16°C° 1.1 mm 5 m/s 731 mmHg 86%
    22:00 +16°C° 1.1 mm 5 m/s 731 mmHg 86%
    23:00 +16°C° 1.5 mm 5 m/s 731 mmHg 87%
    Mostrar mais